Powrót do katalogu

ZY-1 02E

AktywnyNaukaSSO
NORAD 50465·PAYLOAD·🇨🇳 China

Wystrzelony Dec 26, 2021 z Taiyuan Satellite Launch Center

Loading…

Następne Przeloty (najbliższe 24 godziny)

TLE

ŚwieżeSource: Space-Track

Epoka: Sep 14, 2026, 22:20 UTC

1 50465U 21131A   26257.93075133  .00000024  00000-0  23343-4 0  9996
2 50465  98.4374 333.0851 0001284 136.9666 223.1620 14.35396149247297

Śledź ZY-1 02E w czasie rzeczywistym z AllMySat

Download on the App Store